7 * 24
多渠道服务支持
STARLINK-36115是美国SpaceX公司星链星座的一颗低轨通信卫星,于2025年12月7日发射入轨。星链项目旨在构建全球覆盖的低轨宽带互联网星座,该卫星运行在约550公里近地轨道,采用成熟的星间激光通信技术与相控阵天线设计,支持高速低延迟数据传输。作为星链全球覆盖阶段的组网卫星,它将进一步拓展星座容量,助力实现全球偏远地区网络覆盖,推动远程教育、移动互联等场景的普惠互联,同时也延续了星链技术迭代方向,提升了星座整体通信稳定性。
美国
(US)
| 数据来源 | 国际轨道数据 |
| 星历时间: | 2026-03-14T07:51:14+0800 4小时前 查看轨道信息 |
| 半长轴: | 6853.321km |
| 偏心率: | 0.0001289 |
| 轨道倾角: | 53.162° |
| 近地点辐角 | 81.955° |
| 升交点赤经 | 338.608° |
| 平近点角 | 278.160° |
| 近地点: | 474.3km |
| 远地点: | 476.068km |
| 周期: | 94.105分钟 |
| 每日圈数: | 15.302107 |